TimeMST,TemperatureF,Dew PointF,Humidity,Sea Level PressureIn,VisibilityMPH,Wind Direction,Wind SpeedMPH,Gust SpeedMPH,PrecipitationIn,Events,Conditions,WindDirDegrees,DateUTC
12:55 AM,66.9,46.9,49,29.80,10.0,NW,15.0,21.9,N/A,,Clear,320,2012-11-09 07:55:00
1:55 AM,66.0,48.0,52,29.80,10.0,NNW,8.1,-,N/A,,Clear,340,2012-11-09 08:55:00
2:55 AM,64.9,48.0,54,29.79,10.0,NNW,6.9,-,N/A,,Clear,330,2012-11-09 09:55:00
3:55 AM,64.0,48.0,56,29.79,10.0,NW,5.8,-,N/A,,Clear,310,2012-11-09 10:55:00
4:55 AM,63.0,48.0,58,29.79,10.0,NW,6.9,-,N/A,,Clear,320,2012-11-09 11:55:00
5:55 AM,64.0,48.0,56,29.79,10.0,NW,8.1,-,N/A,,Clear,310,2012-11-09 12:55:00
6:55 AM,63.0,48.0,58,29.80,10.0,NW,8.1,-,N/A,,Partly Cloudy,310,2012-11-09 13:55:00
7:55 AM,63.0,48.0,58,29.81,10.0,West,4.6,-,N/A,,Partly Cloudy,270,2012-11-09 14:55:00
8:55 AM,64.9,48.0,54,29.83,10.0,WNW,6.9,-,N/A,,Partly Cloudy,290,2012-11-09 15:55:00
9:55 AM,68.0,45.0,43,29.83,10.0,WNW,10.4,-,N/A,,Mostly Cloudy,290,2012-11-09 16:55:00
10:55 AM,72.0,44.1,37,29.83,10.0,West,15.0,20.7,N/A,,Mostly Cloudy,270,2012-11-09 17:55:00
11:55 AM,73.9,44.1,34,29.81,5.0,West,16.1,23.0,N/A,,Haze,280,2012-11-09 18:55:00
12:55 PM,73.9,43.0,33,29.78,5.0,WNW,15.0,-,N/A,,Haze,290,2012-11-09 19:55:00
1:55 PM,73.9,42.1,32,29.77,5.0,WNW,13.8,23.0,N/A,,Haze,300,2012-11-09 20:55:00
2:55 PM,73.0,39.9,30,29.76,4.0,WNW,13.8,-,N/A,,Haze,290,2012-11-09 21:55:00
3:47 PM,71.6,39.2,31,29.76,6.0,WNW,19.6,24.2,N/A,,Haze,300,2012-11-09 22:47:00
3:55 PM,71.1,39.0,31,29.76,4.0,WNW,16.1,24.2,N/A,,Widespread Dust,290,2012-11-09 22:55:00
4:55 PM,68.0,37.9,33,29.77,5.0,NW,13.8,25.3,N/A,,Widespread Dust,310,2012-11-09 23:55:00
5:55 PM,66.0,36.0,33,29.79,5.0,NW,17.3,26.5,N/A,,Haze,310,2012-11-10 00:55:00
6:55 PM,64.0,35.1,34,29.81,10.0,WNW,8.1,21.9,N/A,,Haze,300,2012-11-10 01:55:00
7:55 PM,63.0,34.0,34,29.83,9.0,WNW,11.5,18.4,N/A,,Haze,300,2012-11-10 02:55:00
8:55 PM,61.0,33.1,35,29.84,6.0,WNW,17.3,-,N/A,,Haze,290,2012-11-10 03:55:00
9:55 PM,59.0,34.0,39,29.86,10.0,WNW,17.3,24.2,N/A,,Haze,290,2012-11-10 04:55:00
10:55 PM,57.9,35.1,42,29.87,10.0,WNW,18.4,24.2,N/A,,Haze,300,2012-11-10 05:55:00
11:55 PM,55.9,37.0,49,29.87,10.0,West,13.8,24.2,N/A,,Partly Cloudy,280,2012-11-10 06:55:00